Change the Weather History Date:

Tuesday, June 17, 2014

  Actual Average Record
Temperature  
Mean Temperature 52 °F -  
Max Temperature 62 °F 58 °F 78 °F (2013)
Min Temperature 41 °F 42 °F 31 °F (1985)
Degree Days  
Heating Degree Days 14    
Growing Degree Days 2 (Base 50)    
Moisture  
Dew Point 41 °F    
Average Humidity 67    
Maximum Humidity 93    
Minimum Humidity 39    
Precipitation  
Precipitation 0.05 in - - ()
Sea Level Pressure  
Sea Level Pressure 29.35 in    
Wind  
Wind Speed 7 mph (East)    
Max Wind Speed 15 mph    
Max Gust Speed 20 mph    
Visibility 10 miles    
Events      
Averages and records for this station are not official NWS values.
T = Trace of Precipitation, MM = Missing Value Source: NWS Daily Summary

Daily Weather History Graph

Daily Weather History Graph

Search for Another Location

Airport or City:

Trip Planner

Search our weather history database for the weather conditions in past years. The results will help you decide how hot, cold, wet, or windy it might be!

Date:

Astronomy

Jun. 17, 2014 Rise Set
Actual Time 4:34 AM AKDT 11:36 PM AKDT
Civil Twilight 2:29 AM AKDT 1:43 AM AKDT
Nautical Twilight Sun does not rise Sun does not rise
Astronomical Twilight Sun does not rise Sun does not rise
Moon 1:09 AM AKDT (6/17) 11:31 AM AKDT (6/17)
Length of Visible Light 23h 13m
Length of Day
19h 02m
Waning Gibbous, 72% of the Moon is Illuminated
Jun 17
Waning Gibbous
Jun 19
Last Quarter
Jun 27
New
Jul 5
First Quarter
Jul 12
Full

Hourly Weather History & Observations

Time (AKDT) Temp. Windchill Dew Point Humidity Pressure Visibility Wind Dir Wind Speed Gust Speed Precip Events Conditions
12:16 AM 46.4 °F 43.5 °F 44.6 °F 93% 29.26 in 10.0 mi NE 5.8 mph - 0.01 in   Overcast
12:36 AM 46.4 °F 45.2 °F 42.8 °F 87% 29.25 in 10.0 mi East 3.5 mph - 0.01 in   Mostly Cloudy
12:56 AM 46.4 °F 43.5 °F 42.8 °F 87% 29.25 in 10.0 mi NE 5.8 mph - 0.01 in   Partly Cloudy
1:16 AM 46.4 °F 45.2 °F 42.8 °F 87% 29.25 in 10.0 mi ENE 3.5 mph - N/A   Clear
1:36 AM 44.6 °F - 42.8 °F 93% 29.24 in 10.0 mi Calm Calm - N/A   Clear
1:56 AM 44.6 °F 41.4 °F 41.0 °F 87% 29.25 in 10.0 mi NE 5.8 mph - N/A   Clear
2:16 AM 42.8 °F - 39.2 °F 87% 29.24 in 10.0 mi Calm Calm - N/A   Clear
2:36 AM 42.8 °F - 41.0 °F 93% 29.24 in 10.0 mi Calm Calm - N/A   Clear
2:56 AM 41.0 °F 38.0 °F 39.2 °F 93% 29.24 in 10.0 mi ENE 4.6 mph - N/A   Clear
3:16 AM 44.6 °F 42.2 °F 41.0 °F 87% 29.24 in 10.0 mi NE 4.6 mph - N/A   Clear
3:36 AM 44.6 °F 42.2 °F 39.2 °F 81% 29.23 in 10.0 mi NE 4.6 mph - N/A   Partly Cloudy
3:56 AM 44.6 °F - 39.2 °F 81% 29.23 in 10.0 mi Calm Calm - N/A   Partly Cloudy
4:16 AM 46.4 °F 43.5 °F 39.2 °F 76% 29.23 in 10.0 mi NNE 5.8 mph - N/A   Scattered Clouds
4:56 AM 46.4 °F 42.4 °F 41.0 °F 81% 29.25 in 10.0 mi NE 8.1 mph - N/A   Overcast
5:16 AM 46.4 °F 41.5 °F 41.0 °F 81% 29.25 in 10.0 mi NE 10.4 mph 16.1 mph N/A   Overcast
5:36 AM 46.4 °F 42.4 °F 39.2 °F 76% 29.25 in 10.0 mi NE 8.1 mph - N/A   Overcast
5:56 AM 46.4 °F 43.5 °F 39.2 °F 76% 29.25 in 10.0 mi East 5.8 mph - N/A   Overcast
6:16 AM 48.2 °F - 41.0 °F 76% 29.25 in 10.0 mi NE 8.1 mph - N/A   Mostly Cloudy
6:36 AM 50.0 °F - 41.0 °F 71% 29.25 in 10.0 mi ENE 9.2 mph - N/A   Scattered Clouds
6:56 AM 51.8 °F - 41.0 °F 67% 29.26 in 10.0 mi ENE 9.2 mph - N/A   Partly Cloudy
7:16 AM 50.0 °F - 41.0 °F 71% 29.26 in 10.0 mi ENE 8.1 mph - N/A   Scattered Clouds
7:36 AM 51.8 °F - 41.0 °F 67% 29.26 in 10.0 mi East 11.5 mph - N/A   Scattered Clouds
7:56 AM 51.8 °F - 42.8 °F 71% 29.27 in 10.0 mi ENE 10.4 mph - N/A   Mostly Cloudy
8:16 AM 53.6 °F - 41.0 °F 62% 29.27 in 10.0 mi East 12.7 mph - N/A   Mostly Cloudy
8:36 AM 53.6 °F - 41.0 °F 62% 29.28 in 10.0 mi East 12.7 mph - N/A   Partly Cloudy
8:56 AM 53.6 °F - 41.0 °F 62% 29.28 in 10.0 mi East 11.5 mph 17.3 mph N/A   Scattered Clouds
9:16 AM 53.6 °F - 42.8 °F 67% 29.29 in 10.0 mi East 8.1 mph - N/A   Scattered Clouds
9:36 AM 55.4 °F - 41.0 °F 58% 29.30 in 10.0 mi East 11.5 mph - N/A   Partly Cloudy
9:56 AM 55.4 °F - 39.2 °F 54% 29.30 in 10.0 mi ENE 15.0 mph - N/A   Clear
10:16 AM 57.2 °F - 41.0 °F 55% 29.30 in 10.0 mi East 10.4 mph - N/A   Partly Cloudy
10:36 AM 57.2 °F - 41.0 °F 55% 29.30 in 10.0 mi NE 6.9 mph - N/A   Mostly Cloudy
10:56 AM 57.2 °F - 39.2 °F 51% 29.31 in 10.0 mi ENE 10.4 mph 16.1 mph N/A   Mostly Cloudy
11:16 AM 57.2 °F - 39.2 °F 51% 29.31 in 10.0 mi East 10.4 mph 16.1 mph N/A   Overcast
11:36 AM 57.2 °F - 37.4 °F 48% 29.32 in 10.0 mi East 9.2 mph - N/A   Overcast
11:56 AM 57.2 °F - 39.2 °F 51% 29.32 in 10.0 mi East 8.1 mph - N/A   Overcast
12:16 PM 60.8 °F - 39.2 °F 45% 29.32 in 10.0 mi East 10.4 mph 18.4 mph N/A   Scattered Clouds
12:36 PM 59.0 °F - 37.4 °F 45% 29.32 in 10.0 mi East 12.7 mph - N/A   Scattered Clouds
12:56 PM 60.8 °F - 37.4 °F 42% 29.32 in 10.0 mi East 13.8 mph 18.4 mph N/A   Partly Cloudy
1:16 PM 59.0 °F - 35.6 °F 42% 29.33 in 10.0 mi ESE 10.4 mph 18.4 mph N/A   Clear
1:36 PM 60.8 °F - 37.4 °F 42% 29.33 in 10.0 mi ESE 11.5 mph 19.6 mph N/A   Partly Cloudy
1:56 PM 60.8 °F - 37.4 °F 42% 29.34 in 10.0 mi East 5.8 mph - N/A   Partly Cloudy
2:16 PM 60.8 °F - 39.2 °F 45% 29.34 in 10.0 mi SW 9.2 mph - N/A   Scattered Clouds
2:36 PM 62.6 °F - 37.4 °F 39% 29.35 in 10.0 mi South 9.2 mph 17.3 mph N/A   Partly Cloudy
2:56 PM 62.6 °F - 37.4 °F 39% 29.35 in 10.0 mi South 8.1 mph - N/A   Clear
3:16 PM 60.8 °F - 37.4 °F 42% 29.35 in 10.0 mi SW 9.2 mph - N/A   Partly Cloudy
3:36 PM 60.8 °F - 37.4 °F 42% 29.38 in 10.0 mi NE 9.2 mph - N/A   Mostly Cloudy
3:56 PM 53.6 °F - 42.8 °F 67% 29.39 in 10.0 mi NW 6.9 mph - N/A   Overcast
4:16 PM 53.6 °F - 41.0 °F 62% 29.40 in 10.0 mi WNW 11.5 mph - N/A   Mostly Cloudy
4:36 PM 51.8 °F - 42.8 °F 71% 29.41 in 10.0 mi West 12.7 mph - N/A   Scattered Clouds
4:56 PM 53.6 °F - 42.8 °F 67% 29.42 in 10.0 mi WNW 9.2 mph - N/A   Mostly Cloudy
5:16 PM 53.6 °F - 42.8 °F 67% 29.43 in 10.0 mi WNW 4.6 mph - N/A   Overcast
5:36 PM 53.6 °F - 42.8 °F 67% 29.43 in 10.0 mi ESE 5.8 mph - N/A   Overcast
5:56 PM 53.6 °F - 44.6 °F 72% 29.45 in 10.0 mi ESE 6.9 mph - N/A   Overcast
6:16 PM 51.8 °F - 46.4 °F 82% 29.45 in 10.0 mi ESE 11.5 mph - N/A   Overcast
6:36 PM 51.8 °F - 44.6 °F 76% 29.45 in 10.0 mi ESE 10.4 mph - N/A   Overcast
6:56 PM 51.8 °F - 44.6 °F 76% 29.45 in 10.0 mi ESE 10.4 mph - N/A   Overcast
7:16 PM 55.4 °F - 44.6 °F 67% 29.46 in 10.0 mi WNW 12.7 mph 16.1 mph N/A   Overcast
7:36 PM 57.2 °F - 44.6 °F 63% 29.47 in 10.0 mi West 12.7 mph - N/A   Mostly Cloudy
7:56 PM 57.2 °F - 44.6 °F 63% 29.49 in 10.0 mi West 12.7 mph - N/A   Mostly Cloudy
8:16 PM 55.4 °F - 42.8 °F 63% 29.49 in 10.0 mi WSW 10.4 mph - N/A   Overcast
8:36 PM 55.4 °F - 42.8 °F 63% 29.50 in 10.0 mi SW 11.5 mph - N/A   Mostly Cloudy
8:56 PM 55.4 °F - 42.8 °F 63% 29.51 in 10.0 mi WSW 10.4 mph - N/A   Mostly Cloudy
9:16 PM 53.6 °F - 42.8 °F 67% 29.51 in 10.0 mi WSW 13.8 mph - N/A   Overcast
9:36 PM 53.6 °F - 42.8 °F 67% 29.53 in 10.0 mi SW 5.8 mph - N/A   Mostly Cloudy
9:56 PM 53.6 °F - 41.0 °F 62% 29.54 in 10.0 mi South 9.2 mph - N/A   Overcast
10:16 PM 51.8 °F - 41.0 °F 67% 29.54 in 10.0 mi South 5.8 mph - N/A   Mostly Cloudy
10:36 PM 51.8 °F - 41.0 °F 67% 29.55 in 10.0 mi South 6.9 mph - N/A   Overcast
10:56 PM 50.0 °F - 44.6 °F 82% 29.56 in 10.0 mi SSE 8.1 mph - N/A   Overcast
11:16 PM 48.2 °F - 44.6 °F 87% 29.57 in 10.0 mi SSE 4.6 mph - 0.03 in   Overcast
11:36 PM 48.2 °F - 44.6 °F 87% 29.57 in 10.0 mi South 5.8 mph - 0.03 in   Overcast
11:56 PM 48.2 °F - 44.6 °F 87% 29.58 in 10.0 mi South 5.8 mph - 0.04 in   Overcast